When you browse on this site, cookies collect data to enhance your experience and personalize the content and advertising you see.
Visit our Privacy Policy to learn more. By continuing to use the site, you agree to this use of cookies and data.
  • în România
  • Lista ţărilor
  • Pe 7 zile
  • Temperatura apei
  • Hartă satelitară
  • Meteo pe hartă
  • Widget-uri
  • user-avatar
    Intrare

    Meteo pe oră la MarcqenBaroeul

    Astăzi, 26 Iunie, Miercuri

    Timp Temperatura Precipitaţii Vânt Presiune Umiditate
    00:00 +18°C° 0 mm 3 m/s 765 mmHg 81%
    01:00 +18°C° 0 mm 2 m/s 765 mmHg 84%
    02:00 +18°C° 0 mm 2 m/s 765 mmHg 87%
    03:00 +17°C° 0 mm 2 m/s 765 mmHg 90%
    04:00 +18°C° 0 mm 2 m/s 765 mmHg 88%
    05:00 +18°C° 0 mm 3 m/s 765 mmHg 87%
    06:00 +19°C° 0 mm 3 m/s 766 mmHg 85%
    07:00 +20°C° 0 mm 3 m/s 766 mmHg 79%
    08:00 +22°C° 0 mm 3 m/s 766 mmHg 74%
    09:00 +25°C° 0 mm 4 m/s 766 mmHg 68%
    10:00 +26°C° 0 mm 4 m/s 766 mmHg 66%
    11:00 +27°C° 0 mm 4 m/s 767 mmHg 65%
    12:00 +28°C° 0 mm 5 m/s 767 mmHg 63%
    13:00 +27°C° 0 mm 5 m/s 767 mmHg 64%
    14:00 +27°C° 0 mm 6 m/s 767 mmHg 66%
    15:00 +27°C° 0 mm 6 m/s 766 mmHg 67%
    16:00 +24°C° 0 mm 6 m/s 766 mmHg 69%
    17:00 +23°C° 0 mm 6 m/s 766 mmHg 71%
    18:00 +22°C° 0 mm 6 m/s 766 mmHg 73%
    19:00 +21°C° 0 mm 6 m/s 767 mmHg 75%
    20:00 +20°C° 0 mm 5 m/s 767 mmHg 77%
    21:00 +19°C° 0 mm 5 m/s 768 mmHg 79%
    22:00 +17°C° 0 mm 5 m/s 768 mmHg 78%
    23:00 +17°C° 0 mm 5 m/s 768 mmHg 77%

    Mâine, 27 Iunie, Joi

    Timp Temperatura Precipitaţii Vânt Presiune Umiditate
    00:00 +17°C° 0 mm 5 m/s 768 mmHg 77%
    01:00 +16°C° 0 mm 5 m/s 768 mmHg 78%
    02:00 +15°C° 0 mm 5 m/s 768 mmHg 80%
    03:00 +15°C° 0 mm 5 m/s 768 mmHg 82%
    04:00 +15°C° 0 mm 5 m/s 768 mmHg 80%
    05:00 +15°C° 0 mm 5 m/s 768 mmHg 78%
    06:00 +15°C° 0 mm 6 m/s 768 mmHg 76%
    07:00 +17°C° 0 mm 6 m/s 768 mmHg 69%
    08:00 +19°C° 0 mm 6 m/s 769 mmHg 62%
    09:00 +21°C° 0 mm 6 m/s 769 mmHg 55%
    10:00 +22°C° 0 mm 6 m/s 769 mmHg 52%
    11:00 +23°C° 0 mm 6 m/s 769 mmHg 48%
    12:00 +24°C° 0 mm 6 m/s 769 mmHg 44%
    13:00 +26°C° 0 mm 6 m/s 768 mmHg 47%
    14:00 +26°C° 0 mm 6 m/s 768 mmHg 49%
    15:00 +26°C° 0 mm 6 m/s 768 mmHg 52%
    16:00 +24°C° 0 mm 6 m/s 768 mmHg 57%
    17:00 +23°C° 0 mm 6 m/s 768 mmHg 62%
    18:00 +21°C° 0 mm 5 m/s 768 mmHg 66%
    19:00 +20°C° 0 mm 5 m/s 768 mmHg 70%
    20:00 +17°C° 0 mm 5 m/s 768 mmHg 73%
    21:00 +17°C° 0 mm 4 m/s 768 mmHg 76%
    22:00 +15°C° 0 mm 4 m/s 768 mmHg 77%
    23:00 +15°C° 0 mm 4 m/s 768 mmHg 79%

    Poimâine, 28 Iunie, Vineri

    Timp Temperatura Precipitaţii Vânt Presiune Umiditate
    00:00 +14°C° 0 mm 4 m/s 768 mmHg 80%
    01:00 +14°C° 0 mm 4 m/s 767 mmHg 83%
    02:00 +13°C° 0 mm 4 m/s 767 mmHg 86%
    03:00 +12°C° 0 mm 4 m/s 767 mmHg 89%
    04:00 +13°C° 0 mm 4 m/s 767 mmHg 86%
    05:00 +14°C° 0 mm 4 m/s 767 mmHg 83%
    06:00 +14°C° 0 mm 4 m/s 767 mmHg 79%
    07:00 +17°C° 0 mm 4 m/s 767 mmHg 73%
    08:00 +18°C° 0 mm 4 m/s 767 mmHg 66%
    09:00 +20°C° 0 mm 5 m/s 766 mmHg 59%
    10:00 +21°C° 0 mm 5 m/s 766 mmHg 55%
    11:00 +23°C° 0 mm 5 m/s 766 mmHg 52%
    12:00 +25°C° 0 mm 5 m/s 766 mmHg 48%
    13:00 +26°C° 0 mm 5 m/s 765 mmHg 47%
    14:00 +26°C° 0 mm 5 m/s 765 mmHg 47%
    15:00 +27°C° 0 mm 5 m/s 765 mmHg 46%
    16:00 +26°C° 0 mm 4 m/s 765 mmHg 50%
    17:00 +26°C° 0 mm 4 m/s 764 mmHg 53%
    18:00 +25°C° 0 mm 4 m/s 764 mmHg 57%
    19:00 +23°C° 0 mm 4 m/s 764 mmHg 60%
    20:00 +21°C° 0 mm 4 m/s 764 mmHg 63%
    21:00 +19°C° 0 mm 3 m/s 764 mmHg 66%
    22:00 +19°C° 0 mm 3 m/s 764 mmHg 69%
    23:00 +18°C° 0 mm 3 m/s 763 mmHg 71%

    29 Iunie, Sâmbătă

    Timp Temperatura Precipitaţii Vânt Presiune Umiditate
    00:00 +17°C° 0 mm 3 m/s 763 mmHg 73%
    01:00 +17°C° 0 mm 3 m/s 763 mmHg 76%
    02:00 +16°C° 0 mm 3 m/s 763 mmHg 78%
    03:00 +16°C° 0 mm 3 m/s 762 mmHg 81%
    04:00 +16°C° 0 mm 2 m/s 762 mmHg 78%
    05:00 +17°C° 0 mm 2 m/s 762 mmHg 74%
    06:00 +18°C° 0 mm 2 m/s 762 mmHg 71%
    07:00 +20°C° 0 mm 2 m/s 762 mmHg 64%
    08:00 +24°C° 0 mm 2 m/s 761 mmHg 58%
    09:00 +26°C° 0 mm 2 m/s 761 mmHg 51%
    10:00 +27°C° 0 mm 3 m/s 761 mmHg 48%
    11:00 +29°C° 0 mm 3 m/s 760 mmHg 45%
    12:00 +30°C° 0 mm 3 m/s 760 mmHg 41%
    13:00 +31°C° 0 mm 3 m/s 760 mmHg 41%
    14:00 +31°C° 0 mm 3 m/s 759 mmHg 41%
    15:00 +33°C° 0 mm 3 m/s 759 mmHg 41%
    16:00 +31°C° 0 mm 3 m/s 759 mmHg 47%
    17:00 +30°C° 0 mm 3 m/s 758 mmHg 52%
    18:00 +29°C° 0 mm 3 m/s 758 mmHg 58%
    19:00 +28°C° 0 mm 3 m/s 758 mmHg 64%
    20:00 +26°C° 0 mm 3 m/s 758 mmHg 71%
    21:00 +24°C° 0 mm 3 m/s 758 mmHg 77%
    22:00 +24°C° 0 mm 3 m/s 758 mmHg 80%
    23:00 +22°C° 0 mm 3 m/s 758 mmHg 83%

    30 Iunie, Duminică

    Timp Temperatura Precipitaţii Vânt Presiune Umiditate
    00:00 +21°C° 0 mm 3 m/s 758 mmHg 86%
    01:00 +21°C° 0 mm 3 m/s 758 mmHg 87%
    02:00 +20°C° 0 mm 3 m/s 758 mmHg 89%
    03:00 +20°C° 0 mm 3 m/s 758 mmHg 90%
    04:00 +20°C° 0 mm 3 m/s 759 mmHg 83%
    05:00 +20°C° 0 mm 4 m/s 759 mmHg 77%
    06:00 +20°C° 0 mm 4 m/s 760 mmHg 70%
    07:00 +21°C° 0 mm 4 m/s 760 mmHg 65%
    08:00 +22°C° 0 mm 4 m/s 760 mmHg 59%
    09:00 +23°C° 0 mm 4 m/s 761 mmHg 53%
    10:00 +23°C° 0 mm 4 m/s 761 mmHg 52%
    11:00 +25°C° 0 mm 4 m/s 761 mmHg 51%
    12:00 +26°C° 0 mm 5 m/s 761 mmHg 50%
    13:00 +26°C° 0 mm 5 m/s 761 mmHg 51%
    14:00 +26°C° 0 mm 5 m/s 761 mmHg 52%
    15:00 +26°C° 0 mm 5 m/s 761 mmHg 52%
    16:00 +25°C° 0 mm 5 m/s 761 mmHg 56%
    17:00 +23°C° 0 mm 5 m/s 761 mmHg 59%
    18:00 +21°C° 0 mm 4 m/s 761 mmHg 63%
    19:00 +20°C° 0 mm 4 m/s 762 mmHg 69%
    20:00 +18°C° 0 mm 3 m/s 762 mmHg 75%
    21:00 +16°C° 0 mm 3 m/s 762 mmHg 81%
    22:00 +16°C° 0 mm 3 m/s 762 mmHg 84%
    23:00 +15°C° 0 mm 2 m/s 762 mmHg 87%

    1 Iulie, Luni

    Timp Temperatura Precipitaţii Vânt Presiune Umiditate
    00:00 +14°C° 0 mm 2 m/s 762 mmHg 89%
    01:00 +14°C° 0 mm 2 m/s 762 mmHg 90%
    02:00 +14°C° 0 mm 2 m/s 762 mmHg 91%
    03:00 +14°C° 0 mm 2 m/s 762 mmHg 92%
    04:00 +15°C° 0 mm 2 m/s 762 mmHg 90%
    05:00 +16°C° 0 mm 2 m/s 761 mmHg 89%
    06:00 +17°C° 0 mm 2 m/s 761 mmHg 87%
    07:00 +18°C° 0 mm 3 m/s 761 mmHg 80%
    08:00 +19°C° 0 mm 3 m/s 762 mmHg 73%
    09:00 +21°C° 0 mm 4 m/s 762 mmHg 66%
    10:00 +21°C° 0 mm 4 m/s 762 mmHg 64%
    11:00 +21°C° 0 mm 4 m/s 762 mmHg 62%
    12:00 +22°C° 0 mm 4 m/s 762 mmHg 60%
    13:00 +22°C° 0 mm 4 m/s 762 mmHg 59%
    14:00 +22°C° 0 mm 4 m/s 762 mmHg 59%
    15:00 +22°C° 0 mm 4 m/s 762 mmHg 58%
    16:00 +21°C° 0 mm 4 m/s 763 mmHg 60%
    17:00 +20°C° 0 mm 4 m/s 763 mmHg 63%
    18:00 +19°C° 0 mm 5 m/s 763 mmHg 65%
    19:00 +18°C° 0 mm 4 m/s 763 mmHg 69%
    20:00 +16°C° 0 mm 3 m/s 764 mmHg 73%
    21:00 +14°C° 0 mm 2 m/s 764 mmHg 77%
    22:00 +14°C° 0 mm 2 m/s 764 mmHg 78%
    23:00 +14°C° 0 mm 2 m/s 764 mmHg 79%
    Arată mai mult